Weather observations for the past three days for
Edinburg, Edinburg International Airport
Imperial (Metric)
Date Time (cdt) Wind (mph) Vis. (mi.) Weather Sky Cond. Temperature (ºF) Relative Humidity Wind Chill (°F) Heat Index (°F) Pressure Precipitation (in)
Air Dwpt 6 hour altimeter (in) sea level (mb) 1 hr 3 hr 6 hr
Max. Min.
15 22:15 SE 12 10.00 Fair CLR 84.2 71.6 66% 90 29.82 0.0
15 21:55 SE 10 10.00 Fair CLR 84.2 71.6 66% 90 29.82 0.0
15 21:35 SE 13 10.00 Fair CLR 84.2 71.6 66% 90 29.81 0.0
15 21:15 SE 14 10.00 Fair CLR 86 69.8 59% 91 29.8 0.0
15 20:55 SE 12 10.00 Fair CLR 86 69.8 59% 91 29.8 0.0
15 20:35 SE 15 10.00 Fair CLR 87.8 69.8 55% 93 29.79 0.0
15 20:15 SE 14 10.00 Fair CLR 87.8 71.6 59% 94 29.78 0.0
15 19:55 E 17 G 23 10.00 Fair CLR 89.6 71.6 55% 96 29.78 0.0
15 19:35 E 18 10.00 Fair CLR 91.4 71.6 52% 99 29.77 0.0
15 19:15 E 17 10.00 Fair CLR 91.4 71.6 52% 99 29.77 0.0
15 18:55 E 17 10.00 Fair CLR 93.2 71.6 101.1 93 50% 101 29.76 0.0
15 18:35 SE 17 10.00 Fair CLR 95 69.8 44% 101 29.77 0.0
15 18:15 SE 14 G 23 10.00 A Few Clouds FEW050 95 69.8 44% 101 29.76 0.0
15 17:55 SE 18 10.00 Partly Cloudy SCT050 95 71.6 47% 103 29.76 0.0
15 17:35 E 18 G 23 10.00 A Few Clouds FEW050 95 69.8 44% 101 29.77 0.0
15 17:15 E 17 G 28 10.00 Partly Cloudy FEW050 SCT065 96.8 71.6 44% 105 29.77 0.0
15 16:55 SE 17 G 23 10.00 Mostly Cloudy BKN060 95 71.6 47% 103 29.77 0.0
15 16:35 E 16 G 22 10.00 Mostly Cloudy BKN060 95 71.6 47% 103 29.78 0.0
15 16:15 SE 18 G 23 10.00 Mostly Cloudy BKN060 96.8 71.6 44% 105 29.78 0.0
15 15:55 SE 12 10.00 Partly Cloudy FEW060 SCT080 SCT090 98.6 69.8 39% 106 29.78 0.0
15 15:35 SE 15 10.00 Mostly Cloudy SCT060 BKN080 BKN090 98.6 69.8 39% 106 29.79 0.0
15 15:15 SE 14 G 21 10.00 Mostly Cloudy BKN060 BKN080 98.6 69.8 39% 106 29.79 0.0
15 14:55 E 14 G 21 0.00 A Few Clouds FEW060 100.4 69.8 37% 108 29.8 0.0
15 14:35 SE 9 G 17 0.00 A Few Clouds FEW060 98.6 68 37% 104 29.81 0.0
15 14:15 E 10 10.00 A Few Clouds FEW060 100.4 68 35% 106 29.82 0.0
15 13:55 S 8 0.00 Partly Cloudy SCT060 98.6 68 37% 104 29.82 0.0
15 13:35 SW 5 10.00 Mostly Cloudy SCT060 BKN070 96.8 69.8 42% 103 29.84 0.0
15 13:15 SE 5 10.00 Mostly Cloudy BKN060 BKN070 95 69.8 44% 101 29.85 0.0
15 12:55 SE 5 10.00 Mostly Cloudy SCT050 BKN060 BKN075 95 69.8 95 75.6 44% 101 29.85 0.0
15 12:35 Vrbl 5 10.00 Mostly Cloudy BKN048 BKN060 BKN070 93.2 69.8 47% 99 29.85 0.0
15 12:15 Vrbl 7 10.00 Mostly Cloudy SCT046 SCT060 BKN070 91.4 71.6 52% 99 29.86 0.0
15 11:55 Vrbl 7 10.00 Mostly Cloudy FEW044 SCT055 BKN065 93.2 71.6 50% 101 29.87 0.0
15 11:35 SE 8 10.00 Partly Cloudy FEW038 SCT060 93.2 71.6 50% 101 29.87 0.0
15 11:15 SE 10 10.00 Partly Cloudy SCT038 SCT055 93.2 71.6 50% 101 29.87 0.0
15 10:55 E 10 10.00 Mostly Cloudy BKN036 BKN050 91.4 71.6 52% 99 29.87 0.0
15 10:35 S 12 G 18 10.00 Mostly Cloudy BKN034 BKN043 91.4 71.6 52% 99 29.88 0.0
15 10:15 SE 8 10.00 Mostly Cloudy BKN031 BKN041 91.4 73.4 56% 100 29.88 0.0
15 09:55 S 8 10.00 Mostly Cloudy BKN025 BKN041 87.8 73.4 62% 96 29.88 0.0
15 09:35 S 8 10.00 Mostly Cloudy BKN025 87.8 75.2 66% 98 29.88 0.0
15 09:15 S 10 10.00 Partly Cloudy SCT021 87.8 75.2 66% 98 29.88 0.0
15 08:55 SE 10 10.00 A Few Clouds FEW021 86 75.2 70% 95 29.88 0.0
15 08:35 SE 7 10.00 Fair CLR 84.2 75.2 74% 92 29.88 0.0
15 08:15 SE 5 10.00 Fair CLR 82.4 75.2 79% 89 29.87 0.0
15 07:55 Calm 10.00 Fair CLR 80.6 75.2 84% 86 29.88 0.0
15 07:35 Calm 10.00 Fair CLR 78.8 75.2 89% 82 29.87 0.0
15 07:15 NE 3 10.00 Fair CLR 77 73.4 89% 78 29.86 0.0
15 06:55 Calm 10.00 Fair CLR 75.2 73.4 80.6 75 94% 74 29.86 0.0
15 06:35 Calm 10.00 Fair CLR 75.2 71.6 89% 75 29.87 0.0
15 06:15 Calm 10.00 Fair CLR 75.2 71.6 89% 75 29.87 0.0
15 05:55 SE 3 10.00 Fair CLR 75.2 71.6 89% 75 29.86 0.0
15 05:35 Calm 10.00 Partly Cloudy SCT021 SCT029 77 73.4 89% 78 29.87 0.0
15 05:15 Calm 10.00 Mostly Cloudy BKN023 77 73.4 89% 78 29.87 0.0
15 04:55 Calm 10.00 Overcast OVC023 77 73.4 89% 78 29.87 0.0
15 04:35 Calm 10.00 Mostly Cloudy BKN023 77 73.4 89% 78 29.87 0.0
15 04:15 Calm 10.00 Fair CLR 77 73.4 89% 78 29.87 0.0
15 03:55 Calm 10.00 Fair CLR 78.8 73.4 84% 82 29.87 0.0
15 03:35 Calm 10.00 Fair CLR 78.8 73.4 84% 82 29.87 0.0
15 03:15 Calm 10.00 Fair CLR 78.8 73.4 84% 82 29.87 0.0
15 02:55 Calm 10.00 Fair CLR 78.8 73.4 84% 82 29.88 0.0
15 02:35 Calm 10.00 Fair CLR 78.8 73.4 84% 82 29.88 0.0
15 01:55 Calm 10.00 A Few Clouds FEW020 78.8 73.4 84% 82 29.89 0.0
15 01:35 SE 3 10.00 Partly Cloudy SCT020 78.8 73.4 84% 82 29.89 0.0
15 01:15 SE 5 10.00 Fair CLR 78.8 73.4 84% 82 29.89 0.0
15 00:55 SE 5 10.00 Fair CLR 80.6 73.4 93.6 80.4 79% 85 29.89 0.0
15 00:35 Calm 10.00 Fair CLR 80.6 75.2 84% 86 29.89 0.0
15 00:15 SE 3 10.00 Fair CLR 80.6 75.2 84% 86 29.89 0.0
14 23:55 SE 5 10.00 Fair CLR 80.6 75.2 84% 86 29.89 0.0
14 23:35 SE 5 10.00 Fair CLR 80.6 73.4 79% 85 29.89 0.0
14 23:15 SE 5 10.00 Fair CLR 82.4 73.4 74% 88 29.88 0.0
14 22:55 SE 6 10.00 Fair CLR 82.4 73.4 74% 88 29.88 0.0
14 22:35 SE 7 10.00 Fair CLR 82.4 73.4 74% 88 29.87 0.0
14 22:15 SE 8 10.00 Fair CLR 84.2 73.4 70% 91 29.86 0.0
14 21:55 SE 8 10.00 Fair CLR 84.2 71.6 66% 90 29.86 0.0
14 21:35 E 9 10.00 Fair CLR 86 71.6 62% 92 29.85 0.0
14 21:15 E 14 G 18 10.00 Fair CLR 86 73.4 66% 93 29.85 0.0
14 20:55 E 15 10.00 Fair CLR 86 71.6 62% 92 29.84 0.0
14 20:35 E 15 10.00 Fair CLR 87.8 73.4 62% 96 29.84 0.0
14 20:15 E 14 10.00 Fair CLR 89.6 73.4 59% 98 29.83 0.0
14 19:55 E 15 10.00 Fair CLR 89.6 71.6 55% 96 29.83 0.0
14 19:35 E 17 G 24 10.00 Fair CLR 91.4 73.4 56% 100 29.82 0.0
14 19:15 E 18 10.00 Fair CLR 91.4 71.6 52% 99 29.82 0.0
14 18:55 E 18 G 24 10.00 Fair CLR 93.2 71.6 102.6 93.2 50% 101 29.81 0.0
14 18:35 E 21 G 24 10.00 Fair and Breezy CLR 95 71.6 47% 103 29.81 0.0
14 18:15 E 20 10.00 Fair CLR 95 69.8 44% 101 29.8 0.0
14 17:55 E 17 G 24 10.00 Fair CLR 96.8 69.8 42% 103 29.8 0.0
14 17:35 E 20 G 24 10.00 Fair CLR 98.6 69.8 39% 106 29.8 0.0
14 17:15 E 17 G 24 10.00 A Few Clouds FEW065 98.6 68 37% 104 29.8 0.0
14 16:55 E 14 G 23 10.00 Fair CLR 98.6 68 37% 104 29.8 0.0
14 16:35 E 15 G 21 10.00 Partly Cloudy FEW060 SCT080 96.8 68 39% 102 29.8 0.0
14 16:15 SE 21 G 25 10.00 Partly Cloudy and Breezy SCT070 100.4 69.8 37% 108 29.8 0.0
14 15:55 E 14 10.00 Mostly Cloudy BKN070 BKN085 100.4 69.8 37% 108 29.81 0.0
14 15:35 E 12 G 18 10.00 Mostly Cloudy BKN070 BKN080 BKN090 98.6 68 37% 104 29.81 0.0
14 15:15 SE 12 G 18 10.00 Partly Cloudy SCT070 100.4 68 35% 106 29.82 0.0
14 14:55 E 14 G 17 10.00 Fair CLR 100.4 68 35% 106 29.82 0.0
14 14:35 SE 13 10.00 A Few Clouds FEW060 FEW075 FEW085 100.4 68 35% 106 29.83 0.0
14 14:15 Vrbl 6 10.00 Partly Cloudy SCT060 SCT075 96.8 68 39% 102 29.84 0.0
14 13:55 SE 6 G 17 10.00 A Few Clouds FEW060 98.6 68 37% 104 29.85 0.0
14 13:35 E 9 10.00 Partly Cloudy SCT060 96.8 69.8 42% 103 29.85 0.0
14 13:15 E 12 10.00 A Few Clouds FEW050 98.6 69.8 39% 106 29.86 0.0
14 12:55 NE 9 10.00 Partly Cloudy SCT050 96.8 69.8 96.1 76.5 42% 103 29.87 0.0
14 12:35 E 8 10.00 Mostly Cloudy BKN050 BKN060 95 69.8 44% 101 29.88 0.0
14 12:15 Calm 10.00 A Few Clouds FEW050 FEW060 95 69.8 44% 101 29.89 0.0
14 11:55 E 10 10.00 A Few Clouds FEW043 FEW060 93.2 69.8 47% 99 29.89 0.0
14 11:35 Vrbl 7 10.00 Partly Cloudy SCT043 SCT060 93.2 71.6 50% 101 29.9 0.0
14 11:15 Vrbl 5 10.00 A Few Clouds FEW038 91.4 71.6 52% 99 29.9 0.0
14 10:55 Calm 10.00 Mostly Cloudy BKN036 89.6 73.4 59% 98 29.9 0.0
14 10:35 S 6 10.00 A Few Clouds FEW036 89.6 73.4 59% 98 29.91 0.0
14 10:15 SE 7 10.00 Fair CLR 89.6 73.4 59% 98 29.91 0.0
14 09:55 SE 7 10.00 Partly Cloudy FEW027 SCT038 87.8 73.4 62% 96 29.91 0.0
14 09:35 S 6 10.00 Partly Cloudy SCT025 87.8 75.2 66% 98 29.91 0.0
14 09:15 Vrbl 5 10.00 A Few Clouds FEW023 86 75.2 70% 95 29.91 0.0
14 08:55 E 7 10.00 Fair CLR 86 75.2 70% 95 29.91 0.0
14 08:35 SE 6 10.00 Fair CLR 84.2 75.2 74% 92 29.91 0.0
14 08:15 Vrbl 5 10.00 A Few Clouds FEW024 82.4 75.2 79% 89 29.91 0.0
14 07:55 E 5 10.00 Fair CLR 80.6 75.2 84% 86 29.9 0.0
14 07:35 E 5 10.00 Fair CLR 78.8 75.2 89% 82 29.9 0.0
14 07:15 E 3 10.00 Fair CLR 77 75.2 94% 78 29.89 0.0
14 06:55 E 3 10.00 Fair CLR 77 73.4 80.8 75.9 89% 78 29.89 0.0
14 06:35 Calm 10.00 Fair CLR 75.2 73.4 94% 74 29.88 0.0
14 06:15 E 3 10.00 Fair CLR 77 75.2 94% 78 29.88 0.0
14 05:55 E 5 10.00 Fair CLR 77 75.2 94% 78 29.87 0.0
14 05:35 Calm 10.00 Fair CLR 77 75.2 94% 78 29.87 0.0
14 05:15 Calm 10.00 Fair CLR 77 75.2 94% 78 29.87 0.0
14 04:55 E 3 10.00 Fair CLR 77 75.2 94% 78 29.87 0.0
14 04:35 SE 3 10.00 Fair CLR 78.8 75.2 89% 82 29.87 0.0
14 04:15 S 3 10.00 Fair CLR 78.8 75.2 89% 82 29.87 0.0
14 03:55 Calm 10.00 Fair CLR 78.8 75.2 89% 82 29.87 0.0
14 03:35 Calm 10.00 Fair CLR 78.8 75.2 89% 82 29.87 0.0
14 03:15 Calm 10.00 Fair CLR 78.8 75.2 89% 82 29.87 0.0
14 02:55 S 3 10.00 Fair CLR 80.6 75.2 84% 86 29.87 0.0
14 02:35 S 3 10.00 Fair CLR 80.6 75.2 84% 86 29.87 0.0
14 02:15 SE 7 10.00 Fair CLR 80.6 75.2 84% 86 29.88 0.0
14 01:55 S 6 10.00 Fair CLR 80.6 75.2 84% 86 29.87 0.0
14 01:35 S 6 10.00 Fair CLR 78.8 75.2 89% 82 29.88 0.0
14 01:15 SE 5 10.00 Fair CLR 80.6 75.2 84% 86 29.88 0.0
14 00:55 SE 3 10.00 Fair CLR 80.6 75.2 94.6 80.2 84% 86 29.89 0.0
14 00:35 SE 3 10.00 Fair CLR 80.6 75.2 84% 86 29.89 0.0
14 00:15 SE 6 10.00 Fair CLR 80.6 75.2 84% 86 29.89 0.0
13 23:55 SE 6 10.00 Fair CLR 82.4 75.2 79% 89 29.89 0.0
13 23:35 SE 6 10.00 Fair CLR 82.4 75.2 79% 89 29.89 0.0
13 23:15 SE 7 10.00 Fair CLR 82.4 75.2 79% 89 29.88 0.0
13 22:55 SE 7 10.00 Fair CLR 84.2 75.2 74% 92 29.88 0.0
13 22:35 SE 8 10.00 Fair CLR 84.2 75.2 74% 92 29.87 0.0
13 22:15 SE 8 10.00 Fair CLR 84.2 75.2 74% 92 29.87 0.0
13 21:55 SE 8 10.00 Fair CLR 86 73.4 66% 93 29.86 0.0
13 21:35 SE 13 10.00 Fair CLR 86 73.4 66% 93 29.85 0.0
13 21:15 SE 14 10.00 Fair CLR 86 73.4 66% 93 29.84 0.0
13 20:55 E 15 10.00 Fair CLR 87.8 73.4 62% 96 29.84 0.0
13 20:35 SE 14 10.00 Fair CLR 87.8 71.6 59% 94 29.84 0.0
13 20:15 E 20 G 23 10.00 Fair CLR 89.6 71.6 55% 96 29.83 0.0
13 19:55 SE 18 10.00 Fair CLR 91.4 71.6 52% 99 29.83 0.0
13 19:35 SE 18 10.00 Fair CLR 91.4 71.6 52% 99 29.82 0.0
13 19:15 E 18 G 24 10.00 Fair CLR 93.2 69.8 47% 99 29.81 0.0
13 18:55 E 17 G 26 10.00 Fair CLR 95 69.8 102.6 91.8 44% 101 29.8 0.0
13 18:35 E 21 10.00 Fair and Breezy CLR 95 69.8 44% 101 29.8 0.0
13 18:15 E 18 G 25 10.00 Fair CLR 96.8 69.8 42% 103 29.79 0.0
13 17:55 E 20 G 25 10.00 A Few Clouds FEW065 96.8 71.6 44% 105 29.79 0.0 0.03
13 17:35 SE 17 10.00 Mostly Cloudy FEW033 SCT050 BKN065 95 73.4 50% 105 29.79 0.0
13 17:15 E 12 G 22 5.00 Rain Haze SCT050 SCT060 BKN070 95 75.2 53% 107 29.8 0.0
13 16:55 SE 14 G 20 10.00 Partly Cloudy SCT080 100.4 69.8 37% 108 29.79 0.0
13 16:35 E 21 G 24 10.00 Partly Cloudy and Breezy SCT070 100.4 69.8 37% 108 29.8 0.0
13 16:15 E 14 G 23 10.00 Mostly Cloudy BKN070 100.4 68 35% 106 29.8 0.0
13 15:55 E 14 G 17 10.00 Partly Cloudy SCT070 100.4 68 35% 106 29.81 0.0
13 15:35 SE 10 G 16 10.00 Partly Cloudy SCT070 SCT080 100.4 69.8 37% 108 29.82 0.0
13 15:15 E 9 10.00 Partly Cloudy SCT060 100.4 68 35% 106 29.82 0.0
13 14:55 E 10 10.00 Partly Cloudy SCT060 100.4 69.8 37% 108 29.83 0.0
13 14:35 S 9 10.00 A Few Clouds FEW060 98.6 69.8 39% 106 29.84 0.0
13 14:15 E 8 10.00 A Few Clouds FEW060 98.6 69.8 39% 106 29.85 0.0
13 13:55 E 10 10.00 A Few Clouds FEW050 98.6 69.8 39% 106 29.86 0.0
13 13:35 SE 12 10.00 A Few Clouds FEW050 FEW060 98.6 69.8 39% 106 29.86 0.0
13 13:15 E 10 10.00 Partly Cloudy SCT050 96.8 71.6 44% 105 29.87 0.0
13 12:55 Vrbl 7 10.00 Mostly Cloudy BKN050 96.8 71.6 97.3 77 44% 105 29.88 0.0
13 12:35 Calm 10.00 Partly Cloudy SCT046 95 71.6 47% 103 29.88 0.0
13 12:15 Calm 8.00 Partly Cloudy SCT044 95 71.6 47% 103 29.89 0.0
13 11:55 Vrbl 3 10.00 Partly Cloudy SCT044 91.4 73.4 56% 100 29.89 0.0
13 11:35 Calm 10.00 Partly Cloudy SCT039 SCT045 91.4 71.6 52% 99 29.89 0.0
13 11:15 S 7 10.00 Mostly Cloudy BKN037 93.2 73.4 53% 103 29.9 0.0
13 10:35 SW 6 10.00 Mostly Cloudy BKN031 89.6 73.4 59% 98 29.9 0.0
13 10:15 SE 9 10.00 Partly Cloudy SCT029 SCT034 89.6 75.2 63% 100 29.9 0.0
13 09:55 SE 12 10.00 Partly Cloudy FEW023 SCT030 89.6 75.2 63% 100 29.9 0.0
13 09:35 S 9 10.00 Mostly Cloudy BKN021 BKN028 87.8 75.2 66% 98 29.9 0.0
13 09:15 S 12 10.00 Mostly Cloudy BKN019 BKN027 86 77 75% 97 29.9 0.0
13 08:55 S 6 10.00 Partly Cloudy SCT019 86 77 75% 97 29.9 0.0
13 08:35 S 9 10.00 A Few Clouds FEW023 84.2 77 79% 94 29.89 0.0
13 08:15 SE 8 10.00 A Few Clouds FEW020 84.2 77 79% 94 29.89 0.0
13 07:55 SE 5 10.00 A Few Clouds FEW020 FEW085 80.6 77 89% 87 29.88 0.0
13 07:35 SE 3 10.00 Mostly Cloudy SCT022 SCT080 BKN100 78.8 75.2 89% 82 29.88 0.0
13 07:15 E 5 10.00 Mostly Cloudy BKN022 BKN100 78.8 75.2 89% 82 29.87 0.0
13 06:55 Calm 10.00 Partly Cloudy FEW020 SCT100 77 75.2 81.9 76.8 94% 78 29.86 0.0
13 06:35 SE 3 10.00 Fair CLR 77 75.2 94% 78 29.86 0.0
13 06:15 Calm 10.00 Fair CLR 77 75.2 94% 78 29.85 0.0
13 05:55 S 3 10.00 Fair CLR 77 75.2 94% 78 29.84 0.0
13 05:35 Calm 10.00 Fair CLR 78.8 75.2 89% 82 29.84 0.0
13 05:15 S 5 10.00 Fair CLR 78.8 75.2 89% 82 29.85 0.0
13 04:55 Calm 10.00 Fair CLR 78.8 75.2 89% 82 29.85 0.0
13 04:35 Calm 10.00 Fair CLR 78.8 75.2 89% 82 29.85 0.0
13 04:15 Calm 10.00 Fair CLR 78.8 75.2 89% 82 29.84 0.0
13 03:55 SE 3 10.00 Fair CLR 78.8 75.2 89% 82 29.84 0.0
13 03:35 SE 5 10.00 Fair CLR 78.8 75.2 89% 82 29.84 0.0
13 03:15 SE 3 10.00 Fair CLR 78.8 75.2 89% 82 29.84 0.0
13 02:55 SE 3 10.00 Fair CLR 78.8 75.2 89% 82 29.85 0.0
13 02:35 SE 5 10.00 Fair CLR 78.8 75.2 89% 82 29.86 0.0
13 02:15 SE 6 10.00 Fair CLR 80.6 75.2 84% 86 29.86 0.0
13 01:55 SE 6 10.00 Fair CLR 80.6 75.2 84% 86 29.86 0.0
13 01:35 SE 7 10.00 Fair CLR 80.6 75.2 84% 86 29.87 0.0
13 01:15 SE 7 10.00 Fair CLR 80.6 75.2 84% 86 29.87 0.0
13 00:55 SE 8 10.00 Fair CLR 82.4 75.2 96.3 81.9 79% 89 29.87 0.0
13 00:35 SE 9 10.00 Fair CLR 82.4 75.2 79% 89 29.88 0.0
13 00:15 SE 9 10.00 Fair CLR 82.4 75.2 79% 89 29.88 0.0
12 23:55 SE 8 10.00 Fair CLR 82.4 75.2 79% 89 29.88 0.0
12 23:35 SE 8 10.00 Fair CLR 84.2 75.2 74% 92 29.87 0.0
12 23:15 SE 8 10.00 Fair CLR 84.2 75.2 74% 92 29.87 0.0
12 22:55 SE 9 10.00 Fair CLR 84.2 75.2 74% 92 29.87 0.0
12 22:35 SE 7 10.00 Fair CLR 84.2 75.2 74% 92 29.86 0.0
Date Time (cdt) Wind (mph) Vis. (mi.) Weather Sky Cond. Air Dwpt Max. Min. Relative Humidity Wind Chill (°F) Heat Index (°F) altimeter (in) sea level (mb) 1 hr 3 hr 6 hr
6 hour
Temperature (ºF) Pressure Precipitation (in)